Location: Treviso
(45.6669°N, 12.2430°E)
Time: 05:30:16
(UTC+01:00)

ISS - Pass Details

Date: 21 January 2021
Orbit: 418 x 421 km, 51.6° (Epoch: 23 January)

Event Time Altitude Azimuth Distance (km) Brightness Sun altitude
Rises 19:28:23 0° 258° (WSW) 2,366 1.4 -25.3°
Reaches altitude 10° 19:30:32 10° 264° (W) 1,504 0.1 -25.7°
Enters shadow 19:32:25 28° 281° (WNW) 816 -1.7 -26.0°
